User: anonymous   Login
Location: Unspecified
(0.0000°N, 0.0000°E)
Time: 22:26:54
(UTC+00:00)
Language:

STARLINK-30413 - Orbit

View from above orbital plane
View from above orbital plane
View from above satellite
View from above satellite

Ground track
Ground track

The orbit is defined by the following mean orbital elements,

1 57814U          26145.32873294 +.00000000 +00000-0 -11619-4 0 00007
2 57814  43.0008 161.8474 0001326 271.3214  88.7486 15.27585208    09
Epoch (UTC): 25 May 2026 07:53:22
Eccentricity: 0.0001326
inclination: 43.0008°
perigee height: 482 km
apogee height: 484 km
right ascension of ascending node: 161.8474°
argument of perigee: 271.3214°
revolutions per day: 15.27585208
mean anomaly at epoch: 88.7486°

The dashed part of the orbit path shows where the satellite is in the earth's shadow,  

DLR